Hourly Weather Barpali

Today, 8 May, Saturday

Time Temperature Precipitation Wind Pressure Humidity
00:00 +30°C° 0 mm 1 mps 743 mmHg 55%
01:00 +30°C° 0.2 mm 2 mps 742 mmHg 55%
02:00 +30°C° 0.2 mm 2 mps 741 mmHg 56%
03:00 +30°C° 0.2 mm 2 mps 741 mmHg 56%
04:00 +29°C° 0 mm 2 mps 741 mmHg 58%
05:00 +29°C° 0 mm 2 mps 741 mmHg 60%
06:00 +28°C° 0 mm 1 mps 742 mmHg 64%
07:00 +30°C° 0 mm 1 mps 742 mmHg 58%
08:00 +32°C° 0 mm 1 mps 743 mmHg 52%
09:00 +35°C° 0 mm 2 mps 743 mmHg 46%
10:00 +37°C° 0 mm 2 mps 743 mmHg 40%
11:00 +39°C° 0 mm 3 mps 742 mmHg 34%
12:00 +40°C° 0 mm 3 mps 742 mmHg 29%
13:00 +42°C° 0 mm 3 mps 741 mmHg 27%
14:00 +43°C° 0 mm 3 mps 740 mmHg 24%
15:00 +43°C° 0 mm 3 mps 739 mmHg 22%
16:00 +42°C° 0 mm 2 mps 738 mmHg 21%
17:00 +42°C° 0 mm 2 mps 738 mmHg 20%
18:00 +42°C° 0 mm 1 mps 738 mmHg 19%
19:00 +40°C° 0 mm 2 mps 738 mmHg 23%
20:00 +38°C° 0 mm 3 mps 739 mmHg 26%
21:00 +36°C° 0 mm 3 mps 739 mmHg 30%
22:00 +35°C° 0 mm 4 mps 739 mmHg 36%
23:00 +34°C° 0 mm 4 mps 740 mmHg 42%

Tomorrow, 9 May, Sunday

Time Temperature Precipitation Wind Pressure Humidity
00:00 +33°C° 0 mm 4 mps 740 mmHg 48%
01:00 +33°C° 0 mm 4 mps 739 mmHg 50%
02:00 +31°C° 0 mm 3 mps 739 mmHg 52%
03:00 +31°C° 0 mm 2 mps 739 mmHg 54%
04:00 +31°C° 0 mm 2 mps 739 mmHg 56%
05:00 +30°C° 0 mm 2 mps 739 mmHg 58%
06:00 +30°C° 0 mm 2 mps 739 mmHg 60%
07:00 +32°C° 0 mm 2 mps 740 mmHg 54%
08:00 +35°C° 0 mm 3 mps 741 mmHg 47%
09:00 +37°C° 0 mm 3 mps 741 mmHg 40%
10:00 +39°C° 0 mm 3 mps 741 mmHg 35%
11:00 +42°C° 0 mm 3 mps 740 mmHg 29%
12:00 +44°C° 0 mm 3 mps 740 mmHg 23%
13:00 +43°C° 0 mm 4 mps 739 mmHg 23%
14:00 +42°C° 0 mm 5 mps 738 mmHg 24%
15:00 +42°C° 0 mm 6 mps 737 mmHg 24%
16:00 +42°C° 0 mm 5 mps 737 mmHg 24%
17:00 +42°C° 0 mm 4 mps 737 mmHg 23%
18:00 +42°C° 0 mm 3 mps 737 mmHg 22%
19:00 +40°C° 0 mm 3 mps 737 mmHg 26%
20:00 +38°C° 0 mm 2 mps 738 mmHg 29%
21:00 +37°C° 0 mm 2 mps 739 mmHg 33%
22:00 +36°C° 0.1 mm 2 mps 739 mmHg 37%
23:00 +35°C° 0.1 mm 2 mps 739 mmHg 40%

Day after tomorrow, 10 May, Monday

Time Temperature Precipitation Wind Pressure Humidity
00:00 +34°C° 0.1 mm 2 mps 739 mmHg 44%
01:00 +34°C° 0 mm 2 mps 739 mmHg 46%
02:00 +32°C° 0 mm 2 mps 738 mmHg 48%
03:00 +31°C° 0 mm 1 mps 738 mmHg 51%
04:00 +31°C° 0 mm 1 mps 738 mmHg 52%
05:00 +31°C° 0 mm 1 mps 738 mmHg 54%
06:00 +30°C° 0 mm 1 mps 739 mmHg 56%
07:00 +32°C° 0 mm 2 mps 739 mmHg 50%
08:00 +35°C° 0 mm 2 mps 739 mmHg 43%
09:00 +38°C° 0 mm 2 mps 740 mmHg 37%
10:00 +39°C° 0 mm 3 mps 739 mmHg 33%
11:00 +42°C° 0 mm 3 mps 739 mmHg 29%
12:00 +44°C° 0 mm 4 mps 738 mmHg 25%
13:00 +44°C° 0 mm 3 mps 737 mmHg 23%
14:00 +45°C° 0 mm 3 mps 736 mmHg 22%
15:00 +45°C° 0 mm 3 mps 735 mmHg 20%
16:00 +42°C° 0.2 mm 5 mps 736 mmHg 28%
17:00 +39°C° 0.2 mm 6 mps 736 mmHg 35%
18:00 +35°C° 0.2 mm 8 mps 737 mmHg 43%
19:00 +34°C° 0.2 mm 6 mps 737 mmHg 45%
20:00 +34°C° 0.2 mm 4 mps 737 mmHg 46%
21:00 +33°C° 0.2 mm 3 mps 737 mmHg 48%
22:00 +32°C° 0 mm 2 mps 737 mmHg 50%
23:00 +31°C° 0 mm 2 mps 738 mmHg 51%

11 May, Tuesday

Time Temperature Precipitation Wind Pressure Humidity
00:00 +31°C° 0 mm 2 mps 738 mmHg 53%
01:00 +31°C° 0 mm 2 mps 738 mmHg 54%
02:00 +30°C° 0 mm 2 mps 737 mmHg 55%
03:00 +30°C° 0 mm 2 mps 737 mmHg 57%
04:00 +30°C° 0 mm 2 mps 737 mmHg 59%
05:00 +29°C° 0 mm 2 mps 737 mmHg 61%
06:00 +29°C° 0 mm 1 mps 738 mmHg 64%
07:00 +32°C° 0 mm 2 mps 738 mmHg 56%
08:00 +35°C° 0 mm 3 mps 738 mmHg 47%
09:00 +37°C° 0 mm 4 mps 739 mmHg 39%
10:00 +41°C° 0 mm 4 mps 738 mmHg 34%
11:00 +43°C° 0 mm 4 mps 738 mmHg 28%
12:00 +45°C° 0 mm 4 mps 737 mmHg 23%
13:00 +46°C° 0 mm 5 mps 736 mmHg 20%
14:00 +47°C° 0 mm 5 mps 735 mmHg 18%
15:00 +48°C° 0 mm 5 mps 734 mmHg 15%
16:00 +43°C° 0.2 mm 5 mps 735 mmHg 21%
17:00 +40°C° 0.2 mm 5 mps 735 mmHg 27%
18:00 +36°C° 0.2 mm 4 mps 735 mmHg 33%
19:00 +35°C° 0.2 mm 4 mps 736 mmHg 36%
20:00 +34°C° 0.2 mm 3 mps 736 mmHg 40%
21:00 +32°C° 0.2 mm 2 mps 736 mmHg 43%
22:00 +32°C° 0 mm 2 mps 736 mmHg 45%
23:00 +32°C° 0 mm 2 mps 737 mmHg 47%

12 May, Wednesday

Time Temperature Precipitation Wind Pressure Humidity
00:00 +32°C° 0 mm 2 mps 737 mmHg 48%
01:00 +31°C° 0 mm 2 mps 736 mmHg 49%
02:00 +31°C° 0 mm 3 mps 736 mmHg 50%
03:00 +31°C° 0 mm 3 mps 736 mmHg 51%
04:00 +31°C° 0 mm 3 mps 736 mmHg 49%
05:00 +31°C° 0 mm 3 mps 736 mmHg 48%
06:00 +31°C° 0 mm 3 mps 737 mmHg 47%
07:00 +35°C° 0 mm 3 mps 737 mmHg 42%
08:00 +37°C° 0 mm 3 mps 738 mmHg 38%
09:00 +40°C° 0 mm 4 mps 738 mmHg 33%
10:00 +42°C° 0 mm 4 mps 738 mmHg 27%
11:00 +44°C° 0 mm 4 mps 737 mmHg 22%
12:00 +47°C° 0 mm 4 mps 737 mmHg 16%
13:00 +48°C° 0 mm 4 mps 736 mmHg 14%
14:00 +48°C° 0 mm 5 mps 735 mmHg 12%
15:00 +49°C° 0 mm 6 mps 734 mmHg 11%
16:00 +48°C° 0 mm 5 mps 733 mmHg 11%
17:00 +47°C° 0 mm 5 mps 733 mmHg 11%
18:00 +47°C° 0 mm 5 mps 733 mmHg 11%
19:00 +43°C° 0 mm 4 mps 733 mmHg 15%
20:00 +41°C° 0 mm 4 mps 734 mmHg 19%
21:00 +38°C° 0 mm 3 mps 734 mmHg 24%
22:00 +37°C° 0 mm 3 mps 735 mmHg 32%
23:00 +36°C° 0 mm 3 mps 735 mmHg 39%

13 May, Thursday

Time Temperature Precipitation Wind Pressure Humidity
00:00 +34°C° 0 mm 4 mps 735 mmHg 47%
01:00 +34°C° 0 mm 4 mps 735 mmHg 47%
02:00 +34°C° 0 mm 4 mps 735 mmHg 47%
03:00 +33°C° 0 mm 4 mps 735 mmHg 47%
04:00 +33°C° 0 mm 4 mps 735 mmHg 48%
05:00 +33°C° 0 mm 3 mps 735 mmHg 49%
06:00 +31°C° 0 mm 3 mps 736 mmHg 51%
07:00 +35°C° 0 mm 3 mps 736 mmHg 43%
08:00 +37°C° 0 mm 4 mps 737 mmHg 36%
09:00 +41°C° 0 mm 4 mps 738 mmHg 29%
10:00 +43°C° 0 mm 4 mps 737 mmHg 24%
11:00 +44°C° 0 mm 4 mps 737 mmHg 19%
12:00 +47°C° 0 mm 4 mps 736 mmHg 14%
13:00 +48°C° 0 mm 4 mps 736 mmHg 12%
14:00 +48°C° 0 mm 5 mps 735 mmHg 11%
15:00 +49°C° 0 mm 6 mps 734 mmHg 10%
16:00 +48°C° 0 mm 5 mps 734 mmHg 10%
17:00 +48°C° 0 mm 5 mps 733 mmHg 10%
18:00 +47°C° 0 mm 5 mps 733 mmHg 10%
19:00 +45°C° 0 mm 5 mps 733 mmHg 14%
20:00 +42°C° 0 mm 5 mps 734 mmHg 17%
21:00 +41°C° 0 mm 5 mps 735 mmHg 21%
22:00 +38°C° 0 mm 4 mps 735 mmHg 26%
23:00 +37°C° 0 mm 4 mps 735 mmHg 31%
Show more